< < Back
Terminal Aerodrome Forecast


Current Version              Previous Versions:   1  2  3  4  5  6  7  8  9  

Terminal Aerodrome Forecast

534
FTAK31 PAJN 242300
TAFAHN
TAF
PAHN 242323Z 2500/2524 29008KT P6SM VCSH BKN015 OVC025
     FM250900 30008KT P6SM -SHRA BKN015 OVC030
     FM251500 30010KT P6SM VCSH OVC015
     FM252100 30012KT P6SM SCT015 BKN060
      AMD LTD TO CLD VIS AND WIND=



Latest METAR

902
SAUS70 KWBC 250954
MTRAHN
METAR KAHN 250951Z AUTO 00000KT 9SM CLR 08/07 A3002 RMK AO2 SLP163
T00780067


USA.gov is the U.S. government's official web portal to all federal, state and local government web resources and services.